Weather in Vyyezzhy Log

Russia / Krasnoyarsk Krai     54°58′30″N   93°55′52″E
temp.,
°C
wind,
m/s
gust,
m/s
humid.,
%
clouds,
%
prec.,
mm/h
press.,
hPa
HPBL,
m
16 may, sun
sun1601:00+10sw71782100 0.7 10141294
04:00+9wsw51288100 0.6 1015929
07:00+9ssw2689100 1.1 1015235
10:00+9ssw2495100 0.6 1015152
13:00+10ssw2592100 1.4 1014199
16:00+10ssw3991100 0.5 1011654
19:00+11ssw31288100 2.1 1007719
22:00+9n3597100 3.8 1007171
17 may, mon
mon1701:00+5n1298100 5.0 1012220
04:00+5n1297100 0.2 1013213
07:00+5nnw1296100 0.3 1014405
10:00+6nw1290100 0.1 1015547
13:00+7wnw1278100 0.1 1015678
16:00+9w1271100 0.1 1014787
19:00+8nnw1179100 0.2 101413
22:00+6nne1187100 0.1 101515
18 may, tue
tue1801:00+4ssw0191100 0.1 101510
04:00+3ssw2194100 0.0 101517
07:00+6s2583100 0.0 1013233
10:00+6s3791100 1.3 1010460
13:00+7s41290100 7.4 1007774
16:00+8ssw2793100 1.8 1004281
19:00+7s2298100 5.8 100368
22:00+7wsw1198100 0.8 100412
19 may, wed
wed1901:00+6n11100100 3.1 100348
04:00+5nne22100100 4.8 1003132
07:00+5nne1199100 5.3 1004103
10:00+5ne1198100 0.6 1004161
13:00+5ne1197100 1.6 1002167
16:00+5nne2298100 1.3 998160
19:00+4nne2399100 14.7 996238
22:00+3nw1299100 3.5 995527
20 may, thu
thu2001:00+1w23100100 12.6 99781
04:000wnw41199100 6.7 1003930
07:000w4997100 9.5 1007720
10:00−1w479399 0.3 1011780
13:00+1w578175 0.6 10121235
16:00+2w4673100 0.3 10121483
19:00+2w258141 0.5 1013384
22:00−5sw11955 0.1 101710